Overview Statistics Trail Chart Weather Telemetry Raw packets
 

This is the latest recevied weather packets stored in our database for station/object W5GMO. If no packets are shown the sender has not sent any weather packets the latest 10 day(s).

<< 83 84 85 86 87 88 89 >>
Time Temp. Humidity Pressure Rain* Wind** Luminosity Snow
1788029535 28.89° C 1% 1023.2 hPa 0 mm - 648 W/m² -
1788029234 28.33° C 1% 1023.6 hPa 0 mm - 648 W/m² -
1788028929 28.33° C 1% 1023.7 hPa 0 mm - 655 W/m² -
1788028628 29.44° C 1% 1023.9 hPa 0 mm - 668 W/m² -
1788028323 29.44° C 1% 1023.8 hPa 0 mm - 676 W/m² -
1788028019 28.89° C 1% 1023.5 hPa 0 mm - 685 W/m² -
1788027714 28.33° C 1% 1023.9 hPa 0 mm - 699 W/m² -
1788027408 28.89° C 1% 1023.8 hPa 0 mm - 712 W/m² -
1788027103 28.33° C 1% 1023.9 hPa 0 mm - 725 W/m² -
1788026803 29.44° C 1% 1024 hPa 0 mm - 732 W/m² -
1788026498 28.89° C 1% 1023.9 hPa 0 mm - 737 W/m² -
1788026198 28.89° C 1% 1024.1 hPa 0 mm - 744 W/m² -
1788025897 28.33° C 1% 1024.2 hPa 0 mm - 746 W/m² -
1788025597 27.78° C 1% 1024.3 hPa 0 mm - 767 W/m² -
1788025297 27.78° C 1% 1024.3 hPa 0 mm - 730 W/m² -
1788024997 28.33° C 1% 1024.2 hPa 0 mm - 774 W/m² -
1788024692 27.78° C 1% 1024.5 hPa 0 mm - 763 W/m² -
1788024388 27.22° C 1% 1024.5 hPa 0 mm - 720 W/m² -
1788024078 27.78° C 1% 1024.5 hPa 0 mm - 750 W/m² -
1788023777 27.78° C 1% 1024.6 hPa 0 mm - 759 W/m² -
1788023474 28.89° C 1% 1024.8 hPa 0 mm - 743 W/m² -
1788023168 28.33° C 1% 1024.7 hPa 0 mm - 756 W/m² -
1788022863 27.22° C 1% 1024.8 hPa 0 mm - 746 W/m² -
1788022559 27.22° C 1% 1024.6 hPa 0 mm - 749 W/m² -
1788022255 26.67° C 1% 1024.7 hPa 0 mm - 717 W/m² -

* Rain latest hour (hover to see other rain measurements)
** Current wind speed in m/s (hover to see current wind gust speed)